Concordia, KS

5:54 PM CST on November 22, 2019 (GMT -0600)
Blosser Municipal

Weather History for KCNK - September, 2019

Change the Weather History Date:

Tuesday, September 10, 2019

  Actual Average Record
Temperature  
Mean Temperature 82 °F 70 °F  
Max Temperature 89 °F 83 °F 100 °F (2000)
Min Temperature 74 °F 59 °F 42 °F (1962)
Degree Days  
Heating Degree Days 0 1  
Month to date heating degree days 0 8  
Since 1 July heating degree days 0 11  
Cooling Degree Days 17 7  
Month to date cooling degree days 132 80  
Year to date cooling degree days 1409 1246  
Growing Degree Days 30 (Base 50)    
Moisture  
Dew Point 68 °F    
Average Humidity 66    
Maximum Humidity 79    
Minimum Humidity 53    
Precipitation  
Precipitation 0.00 in 0.09 in 2.51 in (2003)
Month to date precipitation 0.01 0.96  
Year to date precipitation 28.85 22.06  
Snow  
Snow 0.00 in 0.00 in 0.00 in ()
Month to date snowfall 0.0 0.0  
Year to date snowfall 32.3 13.7  
Since 1 July snowfall 0.0 0.0  
Snow Depth 0.00 in    
Sea Level Pressure  
Sea Level Pressure 29.89 in    
Wind  
Wind Speed 15 mph (South)    
Max Wind Speed 23 mph    
Max Gust Speed 33 mph    
Visibility 10 miles    
Events      
T = Trace of Precipitation, MM = Missing Value Source: NWS Daily Summary

Daily Weather History Graph

Daily Weather History Graph

Search for Another Location

Airport or City:

Astronomy

Sep. 10, 2019 Rise Set
Actual Time 7:06 AM CDT 7:47 PM CDT
Civil Twilight 6:39 AM CDT 8:14 PM CDT
Nautical Twilight 6:07 AM CDT 8:46 PM CDT
Astronomical Twilight 5:34 AM CDT 9:19 PM CDT
Moon 6:23 PM CDT (9/10) 3:35 AM CDT (9/10)
Length of Visible Light 13h 34m
Length of Day
12h 40m
Waxing Gibbous, 89% of the Moon is Illuminated
Sep 10
Waxing Gibbous
Sep 13
Full
Sep 21
Last Quarter
Sep 28
New
Oct 5
First Quarter

Hourly Weather History & Observations

Time (CDT) Temp. Heat Index Dew Point Humidity Pressure Visibility Wind Dir Wind Speed Gust Speed Precip Events Conditions
12:55 AM 78.1 °F - 64.9 °F 64% 29.85 in 10.0 mi South 16.1 mph 26.5 mph N/A   Clear
1:55 AM 78.1 °F - 66.0 °F 66% 29.86 in 10.0 mi South 16.1 mph 27.6 mph N/A   Clear
2:55 AM 77.0 °F - 66.0 °F 69% 29.85 in 10.0 mi South 18.4 mph 31.1 mph N/A   Clear
3:55 AM 77.0 °F - 66.0 °F 69% 29.85 in 10.0 mi South 16.1 mph 29.9 mph N/A   Clear
4:55 AM 75.9 °F - 66.0 °F 71% 29.86 in 10.0 mi South 16.1 mph 25.3 mph N/A   Clear
5:55 AM 73.9 °F - 66.0 °F 76% 29.87 in 10.0 mi South 12.7 mph - N/A   Clear
6:55 AM 73.9 °F - 66.9 °F 79% 29.89 in 10.0 mi SSW 12.7 mph - N/A   Mostly Cloudy
7:55 AM 75.0 °F - 66.9 °F 76% 29.90 in 10.0 mi South 15.0 mph - N/A   Clear
8:55 AM 78.1 °F - 68.0 °F 71% 29.91 in 10.0 mi South 16.1 mph 25.3 mph N/A   Scattered Clouds
9:55 AM 82.0 °F 84.9 °F 68.0 °F 62% 29.92 in 10.0 mi SSW 15.0 mph 26.5 mph N/A   Clear
10:55 AM 82.9 °F 86.5 °F 69.1 °F 63% 29.92 in 10.0 mi South 15.0 mph 25.3 mph N/A   Partly Cloudy
11:55 AM 82.9 °F 86.5 °F 69.1 °F 63% 29.93 in 10.0 mi SSW 16.1 mph 26.5 mph N/A   Partly Cloudy
12:55 PM 86.0 °F 91.5 °F 71.1 °F 61% 29.91 in 10.0 mi South 11.5 mph 24.2 mph N/A   Partly Cloudy
1:55 PM 86.0 °F 90.7 °F 70.0 °F 59% 29.92 in 10.0 mi South 16.1 mph 28.8 mph N/A   Partly Cloudy
2:55 PM 86.0 °F 91.5 °F 71.1 °F 61% 29.91 in 10.0 mi South 17.3 mph 26.5 mph N/A   Clear
3:55 PM 87.1 °F 90.6 °F 68.0 °F 53% 29.89 in 10.0 mi South 15.0 mph 27.6 mph N/A   Clear
4:55 PM 87.1 °F 90.6 °F 68.0 °F 53% 29.88 in 10.0 mi South 12.7 mph 27.6 mph N/A   Clear
5:55 PM 88.0 °F 92.1 °F 69.1 °F 53% 29.87 in 10.0 mi South 16.1 mph 29.9 mph N/A   Clear
6:55 PM 86.0 °F 90.7 °F 70.0 °F 59% 29.87 in 10.0 mi SSE 12.7 mph - N/A   Clear
7:55 PM 82.9 °F 87.5 °F 71.1 °F 67% 29.88 in 10.0 mi SSE 12.7 mph - N/A   Clear
8:55 PM 79.0 °F - 66.9 °F 66% 29.88 in 10.0 mi SSE 13.8 mph - N/A   Clear
9:55 PM 81.0 °F 84.9 °F 71.1 °F 72% 29.87 in 10.0 mi South 17.3 mph - N/A   Clear
10:55 PM 79.0 °F - 71.1 °F 77% 29.88 in 10.0 mi South 18.4 mph 27.6 mph N/A   Clear
11:55 PM 79.0 °F - 70.0 °F 74% 29.91 in 10.0 mi South 16.1 mph 26.5 mph N/A   Clear